Location: Fort Worth, Tx
(32.7431°N, 97.3695°W)
Time: 05:08:53
(UTC-05:00)

Altair - Pass Details

Date: 06 October 2023
Orbit: 1501 x 1682 km, 47.2° (Epoch: 06 December)

Event Time Altitude Azimuth Distance (km) Brightness Sun altitude
Rises 08:27:56 0° 306° (NW) 4,869 9.6 -0.6°
Reaches altitude 10° 08:31:08 10° 310° (NW) 3,900 9.1 0.0°
Maximum altitude 08:41:05 62° 30° (NNE) 1,854 8.2 2.1°
Drops below altitude 10° 08:51:07 10° 110° (ESE) 3,935 11.8 4.2°
Sets 08:54:20 0° 114° (ESE) 4,915 12.1 4.9°
